Wind_Speed
43 57 62 38 57 68 65 68 70 64 63 58 56 53 51 47 45 42 41 38 40 38 36 34 32 30 29 28 27 26 24 24 26 26 22 19 18 17 18 19 21 24 25
46 56 53 30 65 70 66 63 65 64 59 56 55 51 50 49 46 43 44 40 40 40 37 34 33 30 31 30 28 28 27 25 26 27 23 22 20 17 20 21 25 27 28
35 44 49 45 51 61 61 64 60 61 58 53 49 48 50 48 46 45 42 41 40 40 36 34 33 32 32 31 31 30 28 27 27 28 27 24 23 22 22 24 25 27 29
42 55 50 53 59 58 59 60 61 59 55 52 49 44 45 48 48 45 44 43 41 39 36 35 34 33 32 30 31 32 29 28 27 26 27 27 27 26 27 28 28 28 30
53 53 51 49 56 52 53 56 56 54 54 50 47 46 44 47 46 45 45 44 43 40 38 36 35 34 29 29 30 31 30 29 28 27 27 29 30 30 31 34 34 34 32
49 52 52 49 54 51 57 55 56 56 53 50 49 46 45 46 46 46 44 45 42 40 39 39 37 33 32 32 30 30 29 28 29 29 29 32 32 32 35 39 37 32 23
38 48 56 58 56 56 55 57 54 50 48 48 46 44 43 46 46 46 44 43 41 40 40 39 38 35 33 32 31 32 31 30 31 31 33 32 35 36 41 36 28 23 21
7 27 49 51 52 52 53 47 47 48 48 48 45 44 42 43 45 44 43 41 39 38 37 37 37 37 37 30 31 33 32 32 33 35 36 37 38 36 28 23 21 17 15
14 11 17 47 44 46 42 47 46 46 45 45 43 43 43 42 40 40 39 40 39 37 35 36 36 34 38 27 29 35 33 32 35 35 34 36 30 25 20 15 15 13 11
13 11 6 9 35 39 42 41 41 42 41 41 42 43 43 42 40 39 40 42 41 39 37 37 38 37 36 28 30 33 32 30 32 28 19 14 13 13 12 11 11 9 4
19 19 14 4 9 27 33 36 33 34 38 39 41 42 43 43 44 42 42 42 39 37 36 36 36 34 33 33 30 29 28 28 21 14 14 13 10 9 7 6 4 6 5
17 16 15 16 10 7 20 24 21 27 36 41 41 44 45 45 43 41 39 39 36 35 30 33 32 34 35 32 31 25 20 17 17 16 13 9 9 5 6 8 6 4 1
16 14 13 12 10 5 5 8 22 21 30 22 34 46 45 46 48 42 38 37 36 34 35 30 31 29 19 20 18 17 17 20 20 17 10 8 10 11 9 6 4 1 3
16 14 10 6 6 6 3 6 5 1 7 8 19 25 26 24 33 38 39 40 37 33 30 29 28 25 28 27 24 19 21 18 15 12 13 15 14 10 7 4 3 2 5
17 14 11 9 7 4 6 3 2 2 4 3 7 13 29 30 22 28 32 31 28 30 26 33 33 34 32 29 26 26 21 18 17 18 17 15 12 10 7 4 1 3 5
19 18 17 13 12 9 7 5 7 6 6 8 8 4 11 14 20 17 14 25 24 28 33 34 35 32 30 27 25 23 21 22 20 19 17 14 11 9 6 3 1 4 6
18 17 16 14 13 11 9 10 11 11 11 12 11 12 12 15 14 15 17 20 16 24 28 32 32 28 26 24 23 23 24 22 20 17 15 12 9 6 3 1 2 5 8
17 15 14 13 13 11 10 11 14 17 20 21 17 16 16 18 18 16 17 19 28 26 25 25 25 24 23 23 25 25 23 22 20 17 14 10 7 3 1 2 4 7 9
16 16 14 12 11 10 10 11 15 17 20 23 24 21 18 19 19 19 21 23 24 22 21 21 21 24 26 27 24 23 20 19 17 15 11 8 5 2 2 4 7 9 10
15 16 14 12 11 11 10 11 14 17 21 24 25 24 20 17 19 20 18 16 18 20 21 24 27 27 25 24 24 23 21 18 16 12 9 6 4 2 3 5 6 8 10
12 13 14 13 12 11 10 10 10 13 16 17 17 14 13 12 15 16 18 17 17 20 23 26 27 25 24 23 21 21 19 16 13 10 7 5 3 2 3 3 5 8 9
11 12 10 11 10 10 10 9 10 10 12 14 15 12 8 8 13 16 18 20 18 21 21 20 21 20 20 20 20 17 15 12 10 8 5 4 2 2 2 3 5 7 9
11 9 9 10 9 8 7 7 7 8 8 9 9 8 6 10 12 16 17 18 20 20 20 20 21 22 21 19 16 13 10 9 7 6 4 3 3 4 4 4 4 5 7
10 8 8 8 8 6 6 5 6 6 6 6 6 6 8 9 12 14 15 15 17 18 20 19 19 18 18 15 13 11 9 7 6 5 5 5 5 5 5 3 2 5 8
10 8 6 4 5 5 4 3 2 4 4 4 5 6 8 10 13 14 15 17 18 18 19 18 17 15 13 12 10 9 8 7 7 7 6 6 6 5 3 1 3 7 10
10 9 8 6 4 3 1 1 1 2 4 5 5 5 9 10 11 13 15 16 17 17 16 15 14 13 12 10 10 9 9 9 8 8 8 8 6 4 2 3 6 9 12
Wind_Direction
210 207 226 235 197 191 191 193 201 204 207 207 209 210 211 212 211 212 216 220 222 224 225 227 230 233 234 236 240 245 248 249 253 258 257 253 251 246 249 254 258 263 270
199 209 221 236 179 188 190 192 200 205 206 207 210 212 213 212 213 214 217 219 221 223 223 226 230 230 232 235 238 243 246 249 253 262 265 266 264 261 260 257 259 267 272
211 215 240 222 185 184 188 196 201 205 205 206 211 212 214 215 215 217 219 222 222 225 225 227 229 230 232 236 239 242 245 248 251 261 267 272 271 265 264 265 265 268 269
224 227 228 179 183 188 194 196 201 205 207 204 210 215 217 217 218 218 220 224 225 227 228 230 233 235 235 238 244 244 247 251 253 257 265 271 273 275 275 273 272 272 272
202 204 207 181 183 189 197 201 202 203 209 206 211 215 218 220 219 219 222 225 226 228 230 234 236 238 239 241 246 250 250 252 254 254 258 263 268 271 275 276 270 263 259
201 199 202 193 195 204 205 206 207 205 209 210 214 216 218 220 220 220 223 227 230 232 235 236 237 238 239 243 248 249 247 250 251 255 260 262 264 270 272 271 261 250 240
184 180 173 183 189 190 195 198 205 205 210 214 213 215 220 221 221 221 223 228 232 235 238 240 240 238 238 245 244 246 248 249 255 261 262 267 269 270 269 260 247 239 246
161 193 185 191 200 201 197 201 205 209 211 212 213 215 220 221 223 222 224 228 234 237 240 244 245 240 238 245 246 247 248 252 257 257 258 258 264 263 247 239 243 242 243
8 355 152 186 198 195 201 204 207 209 213 216 218 219 221 224 223 225 225 226 231 236 241 247 247 245 240 242 249 244 247 248 254 252 254 260 254 243 233 227 235 239 259
30 15 355 144 179 190 194 203 211 215 217 219 223 225 226 227 228 225 225 228 230 234 238 241 247 252 246 245 247 245 242 244 248 248 242 230 226 226 238 243 253 268 253
19 45 63 274 187 197 206 209 213 217 221 230 229 231 233 232 232 229 228 229 230 236 239 242 247 248 244 250 241 240 242 244 225 212 200 204 216 231 238 245 209 202 197
13 13 36 46 47 246 215 201 222 224 223 227 229 228 226 235 232 233 231 232 232 232 233 237 236 244 237 231 226 220 212 203 197 200 204 209 228 202 179 180 172 172 189
18 27 13 46 56 57 109 162 198 211 217 219 212 220 226 224 224 226 229 228 229 226 228 232 228 219 198 182 185 186 194 196 198 200 205 191 165 160 158 148 137 111 10
24 26 37 45 42 42 54 87 122 232 238 227 246 246 224 228 225 214 216 220 224 210 209 196 187 177 175 178 179 187 189 187 196 199 171 162 156 149 143 123 78 16 347
27 29 38 43 60 58 87 62 15 222 236 19 267 241 214 209 232 209 212 198 201 200 201 181 175 177 174 170 171 174 180 184 168 159 156 152 148 144 137 127 85 353 341
25 29 37 42 50 57 68 122 187 217 189 202 217 182 202 200 193 195 182 191 180 194 181 173 174 169 166 167 171 169 162 160 154 153 152 152 149 144 144 130 27 338 329
31 32 33 40 54 63 73 88 105 114 125 125 135 153 173 179 179 173 174 167 163 180 177 167 168 165 165 164 155 157 156 153 151 152 149 148 150 146 138 105 346 345 342
33 36 40 45 51 58 73 95 108 114 116 107 109 130 147 151 158 168 173 172 164 168 170 162 160 157 149 149 155 157 156 155 153 152 152 150 150 143 103 17 353 348 352
35 40 42 45 60 69 81 98 105 111 113 116 117 117 127 139 146 150 158 164 160 157 159 156 147 142 149 151 151 153 155 154 153 153 152 149 145 125 17 1 359 359 0
33 38 44 55 60 69 83 99 112 119 124 129 135 140 143 144 141 144 152 158 158 154 150 145 145 150 155 157 158 159 158 157 157 155 152 147 140 99 34 10 10 8 7
35 40 44 51 59 68 79 94 106 120 123 124 123 131 127 136 137 145 142 136 139 140 146 150 150 153 154 156 158 161 161 159 157 153 159 150 135 75 36 28 27 33 27
35 45 46 53 61 67 75 86 98 111 123 134 135 138 130 130 136 135 139 143 146 151 154 160 160 156 154 162 162 160 163 161 158 160 160 142 123 127 113 77 57 36 18
26 44 59 60 59 62 81 97 113 130 137 141 147 150 151 141 137 136 139 144 148 153 158 160 157 157 159 160 160 162 160 159 154 157 166 171 162 157 133 107 70 34 4
27 32 46 55 51 63 79 97 122 140 149 144 139 139 136 134 144 153 157 165 164 158 151 157 162 163 161 161 161 166 162 170 177 179 177 177 171 160 142 120 37 356 348
35 40 49 54 48 58 68 80 111 163 179 170 172 163 171 156 148 144 145 150 156 158 159 163 164 162 165 168 170 176 184 187 188 185 183 179 168 157 162 206 315 323 332
32 40 41 36 39 56 94 129 126 178 191 186 177 161 156 150 157 160 166 169 170 170 171 172 176 177 177 177 184 188 193 193 186 187 183 172 170 179 219 283 313 323 334
Height
1311 1326 1341 1336 1341 1352 1367 1378 1384 1398 1410 1419 1429 1438 1445 1453 1457 1462 1469 1474 1481 1486 1490 1492 1495 1501 1505 1509 1511 1513 1514 1515 1514 1515 1518 1520 1522 1524 1524 1525 1524 1523 1522
1304 1317 1320 1323 1327 1346 1357 1367 1379 1392 1402 1409 1424 1432 1439 1446 1449 1454 1462 1467 1474 1478 1482 1486 1489 1494 1498 1502 1504 1506 1508 1511 1511 1510 1512 1515 1517 1518 1518 1518 1517 1516 1515
1287 1308 1320 1325 1329 1338 1352 1362 1374 1389 1397 1408 1418 1422 1431 1438 1442 1449 1454 1462 1468 1472 1475 1480 1482 1488 1492 1495 1497 1500 1502 1505 1506 1505 1505 1508 1510 1511 1512 1513 1511 1510 1509
1300 1306 1318 1314 1328 1339 1346 1355 1370 1382 1394 1399 1409 1416 1424 1431 1435 1442 1448 1456 1461 1465 1469 1473 1477 1481 1485 1488 1492 1495 1497 1499 1500 1501 1501 1500 1503 1503 1504 1505 1504 1503 1501
1297 1301 1305 1312 1327 1329 1344 1354 1362 1372 1389 1393 1403 1411 1417 1425 1428 1434 1442 1449 1453 1458 1462 1466 1471 1475 1478 1482 1485 1489 1491 1494 1494 1495 1495 1495 1496 1497 1497 1497 1495 1495 1493
1284 1289 1297 1310 1322 1331 1340 1347 1358 1370 1382 1389 1398 1405 1409 1415 1421 1427 1434 1441 1446 1450 1454 1460 1464 1467 1470 1475 1479 1482 1484 1485 1487 1487 1487 1488 1490 1490 1491 1490 1486 1488 1485
1283 1287 1293 1308 1321 1329 1337 1347 1354 1363 1374 1381 1391 1398 1401 1409 1414 1420 1427 1433 1438 1442 1447 1451 1455 1458 1463 1468 1471 1473 1475 1477 1479 1480 1480 1480 1482 1481 1481 1480 1480 1479 1480
1287 1288 1292 1302 1315 1324 1330 1338 1349 1359 1366 1375 1382 1389 1395 1400 1405 1412 1420 1426 1430 1434 1439 1442 1446 1451 1454 1459 1462 1465 1467 1468 1470 1471 1472 1472 1473 1473 1471 1473 1475 1474 1474
1287 1287 1288 1300 1309 1312 1325 1336 1345 1353 1360 1368 1374 1381 1387 1393 1399 1406 1413 1417 1421 1426 1430 1434 1437 1441 1444 1448 1453 1455 1457 1459 1461 1462 1463 1464 1463 1465 1468 1465 1470 1470 1470
1295 1299 1296 1295 1302 1315 1322 1331 1340 1347 1354 1361 1368 1374 1381 1387 1394 1400 1406 1409 1411 1416 1421 1425 1429 1433 1436 1439 1445 1448 1448 1451 1453 1455 1458 1459 1460 1462 1465 1464 1466 1464 1467
1304 1303 1307 1312 1307 1314 1320 1328 1334 1340 1346 1354 1361 1367 1373 1380 1386 1392 1397 1397 1402 1407 1411 1415 1419 1422 1427 1432 1436 1439 1442 1445 1448 1452 1452 1454 1456 1460 1460 1460 1463 1466 1466
1311 1309 1308 1305 1306 1310 1320 1322 1330 1336 1341 1348 1353 1359 1364 1370 1376 1383 1387 1390 1394 1398 1402 1405 1410 1414 1417 1422 1428 1432 1435 1439 1443 1449 1452 1452 1454 1457 1461 1464 1466 1466 1467
1318 1315 1311 1313 1320 1323 1317 1320 1325 1332 1338 1341 1342 1350 1350 1352 1365 1370 1376 1380 1385 1389 1392 1397 1402 1406 1412 1417 1422 1428 1433 1435 1436 1445 1447 1452 1458 1460 1462 1463 1464 1466 1467
1326 1326 1325 1325 1323 1320 1321 1321 1326 1331 1335 1338 1343 1347 1350 1354 1356 1350 1365 1370 1373 1376 1384 1389 1393 1399 1407 1413 1419 1422 1430 1436 1440 1442 1445 1450 1454 1459 1462 1464 1464 1465 1465
1334 1333 1330 1328 1327 1327 1324 1325 1329 1333 1336 1336 1341 1344 1347 1350 1357 1356 1359 1357 1363 1374 1375 1380 1389 1398 1402 1407 1415 1422 1428 1433 1437 1441 1446 1451 1454 1458 1459 1462 1463 1463 1464
1335 1335 1333 1331 1327 1328 1330 1330 1331 1334 1334 1338 1343 1346 1350 1354 1358 1363 1358 1366 1363 1374 1377 1379 1392 1397 1400 1407 1414 1421 1427 1434 1436 1440 1444 1450 1454 1457 1459 1459 1461 1463 1463
1343 1340 1338 1338 1336 1336 1337 1337 1335 1336 1337 1341 1342 1346 1351 1354 1358 1362 1366 1366 1365 1375 1381 1384 1392 1394 1399 1409 1415 1423 1429 1433 1435 1443 1447 1451 1455 1455 1458 1458 1461 1462 1461
1349 1349 1347 1344 1343 1343 1342 1343 1343 1342 1343 1344 1348 1353 1357 1357 1361 1365 1365 1370 1376 1384 1387 1388 1391 1396 1402 1411 1418 1425 1431 1435 1437 1442 1447 1451 1454 1457 1459 1459 1460 1460 1460
1356 1353 1352 1352 1351 1352 1350 1350 1348 1350 1349 1350 1352 1358 1361 1359 1363 1367 1373 1376 1379 1382 1386 1390 1394 1400 1407 1414 1421 1427 1432 1436 1440 1443 1448 1450 1454 1456 1458 1458 1459 1459 1459
1361 1358 1359 1357 1357 1355 1354 1356 1355 1356 1357 1358 1359 1360 1362 1366 1369 1373 1376 1379 1383 1385 1389 1393 1400 1405 1413 1417 1422 1427 1433 1437 1442 1444 1447 1449 1451 1454 1454 1456 1455 1456 1457
1370 1366 1364 1358 1361 1360 1361 1361 1361 1363 1364 1366 1368 1371 1371 1372 1373 1377 1377 1383 1387 1390 1395 1399 1404 1411 1414 1420 1425 1429 1434 1437 1440 1442 1447 1446 1449 1451 1453 1453 1454 1454 1456
1369 1367 1368 1368 1368 1366 1365 1365 1366 1367 1368 1370 1374 1377 1376 1377 1377 1381 1384 1388 1392 1398 1401 1403 1407 1412 1416 1424 1427 1429 1434 1436 1437 1442 1447 1447 1448 1450 1452 1453 1453 1453 1455
1375 1374 1374 1372 1370 1370 1372 1372 1373 1373 1375 1378 1379 1378 1382 1381 1381 1382 1386 1391 1394 1401 1404 1407 1411 1414 1419 1425 1427 1432 1432 1436 1437 1439 1444 1447 1449 1452 1451 1451 1451 1452 1454
1379 1377 1374 1372 1373 1374 1375 1376 1376 1378 1381 1380 1380 1381 1384 1385 1383 1388 1389 1395 1400 1404 1407 1411 1414 1416 1420 1423 1426 1431 1431 1434 1437 1440 1443 1447 1449 1450 1450 1449 1449 1451 1452
1381 1380 1379 1379 1378 1378 1377 1378 1379 1381 1381 1380 1384 1384 1387 1386 1385 1388 1393 1398 1403 1407 1409 1413 1414 1415 1418 1423 1426 1428 1431 1433 1437 1440 1443 1445 1448 1447 1448 1448 1449 1450 1449
1383 1382 1380 1380 1379 1379 1379 1380 1381 1381 1382 1384 1386 1386 1386 1386 1389 1392 1397 1402 1405 1407 1409 1412 1413 1416 1420 1422 1425 1428 1431 1435 1436 1440 1442 1444 1445 1446 1447 1447 1448 1447 1446